Home   Weather   New City   Past weeks

Flag for USA Past Weather in New City, New York, USA — Yesterday and Last 2 Weeks

Now
47 °F

Clear.


Feels Like: 42 °F
Forecast: 42 / 67 °F
Wind: 12 mph from Northwest

Location: Westchester County Airport

Current Time: Apr 23, 2017 at 1:40:10 am

Latest Report: Apr 23, 2017 at 12:56 am


Visibility: 10 mi

Pressure: 30.02 "Hg

Humidity: 69%

Dew Point: 37 °F

Location of New CityLocation

Past Weather in New City — Graph

°F

New City Temperature Yesterday

Maximum temperature yesterday: 54 °F (at 10:56 am)
Minimum temperature yesterday: 46 °F (at 11:56 pm)
Average temperature yesterday: 51 °F

High & Low Weather Summary for the Past Weeks

 TemperatureHumidityPressure
High83 °F (Apr 16, 1:56 pm)97% (Apr 19, 10:56 pm)30.53 "Hg (Apr 19, 10:56 pm)
Low34 °F (Apr 9, 6:56 am)18% (Apr 17, 7:56 pm)29.62 "Hg (Apr 7, 11:56 pm)
Average55 °F61%30.12 "Hg
* Reported Apr 7 11:56 pm — Apr 22 11:56 pm, New City, Weather by CustomWeather, © 2017

Note: Actual official high and low records may vary slightly from our data, if they occured in-between our weather recording intervals... More about our weather records

Advertising

New City Weather History for the Previous 24 Hours

Scroll right to see more
 ConditionsComfort  
Time TempWeatherWind HumidityBarometerVisibility
11:56 pm
Sat, Apr 22
46 °FClear.9 mph71%30.01 "Hg10 mi
10:56 pm50 °FOvercast.9 mph63%29.98 "Hg10 mi
9:56 pm51 °FPassing clouds.10 mph61%29.98 "Hg10 mi
8:56 pm52 °FPassing clouds.12 mph59%29.97 "Hg10 mi
7:56 pm52 °FPassing clouds.6 mph80%29.95 "Hg10 mi
6:56 pm52 °FScattered clouds.6 mph83%29.93 "Hg10 mi
5:56 pm52 °FPartly sunny.5 mph86%29.94 "Hg10 mi
4:56 pm53 °FLight rain. Partly sunny.6 mph80%29.93 "Hg10 mi
3:56 pm51 °FPartly sunny.3 mph89%29.91 "Hg8 mi
2:56 pm51 °FLight rain. Partly sunny.6 mph89%29.91 "Hg10 mi
1:56 pm54 °FMostly cloudy.3 mph77%29.90 "Hg10 mi
12:56 pm53 °FLight rain. Partly sunny.5 mph80%29.91 "Hg10 mi
11:56 am54 °FLight rain. Broken clouds.10 mph74%29.94 "Hg10 mi
10:56 am54 °FLight rain. Broken clouds.3 mph80%29.94 "Hg10 mi
9:56 am52 °FLight rain. Partly sunny.3 mph83%29.93 "Hg10 mi
8:56 am51 °FLight rain. Broken clouds.6 mph86%29.93 "Hg10 mi
7:56 am51 °FPartly sunny.6 mph86%29.91 "Hg10 mi
6:56 am50 °FMostly cloudy.5 mph89%29.90 "Hg10 mi
5:56 am50 °FPassing clouds.3 mph89%29.90 "Hg10 mi
4:56 am50 °FPassing clouds.8 mph89%29.90 "Hg10 mi
3:56 am50 °FFog.5 mph93%29.90 "Hg5 mi
2:56 am49 °FFog.No wind97%29.92 "Hg4 mi
1:56 am49 °FFog.3 mph93%29.92 "Hg2 mi
Weather by CustomWeather, © 2017

See weather overviewHow to use our weather pages